Location: Fort Worth, Tx
(32.7431°N, 97.3695°W)
Time: 17:51:04
(UTC-05:00)

A-11 Canister half - All Passes

Search period start: 20 February 2024 00:00
Search period end: 01 March 2024 00:00
Orbit: 1526 x 1682 km, 47.3° (Epoch: 20 February)

Date Brightness Start Highest point End Pass type
(mag) Time Alt. Az. Time Alt. Az. Time Alt. Az.
20 Feb - 01:27:19 10° WNW 01:35:47 36° NNW 01:44:12 10° NE night (unlit)
20 Feb - 03:34:40 10° NW 03:43:04 36° NNE 03:51:31 10° ENE visible
20 Feb - 05:39:57 10° NW 05:49:18 75° NE 05:58:49 10° ESE visible
20 Feb - 07:45:42 10° WNW 07:53:46 34° SW 08:02:01 10° S visible
20 Feb - 20:55:29 10° S 21:03:28 30° SE 21:11:16 10° ENE visible
20 Feb - 22:58:16 10° SW 23:07:50 80° NW 23:17:12 10° NE visible
21 Feb - 01:05:26 10° W 01:13:57 37° NNW 01:22:25 10° NE night (unlit)
21 Feb - 03:12:52 10° NW 03:21:14 35° NNE 03:29:37 10° ENE visible
21 Feb - 05:18:14 10° NW 05:27:33 72° NE 05:37:01 10° ESE visible
21 Feb - 07:23:51 10° WNW 07:32:04 36° SW 07:40:28 10° SSE visible
21 Feb - 20:33:59 10° S 20:41:47 28° SE 20:49:24 10° ENE visible
21 Feb - 22:36:29 10° SW 22:46:05 84° NW 22:55:29 10° NE visible
22 Feb - 00:43:32 10° W 00:52:08 38° NNW 01:00:39 10° NE visible
22 Feb - 02:51:05 10° NW 02:59:24 35° N 03:07:44 10° ENE visible
22 Feb - 04:56:30 10° NW 05:05:48 69° NNE 05:15:13 10° ESE visible
22 Feb - 07:02:02 10° WNW 07:10:23 38° SW 07:18:55 10° SSE visible
22 Feb - 20:12:31 10° S 20:20:06 27° SE 20:27:30 10° ENE visible
22 Feb - 22:14:43 10° SW 22:24:21 87° NW 22:33:45 10° NE visible
23 Feb - 00:21:39 10° W 00:30:18 39° NNW 00:38:52 10° NE visible
23 Feb - 02:29:16 10° NW 02:37:34 34° N 02:45:52 10° ENE visible
23 Feb - 04:34:46 10° NW 04:44:02 66° NNE 04:53:25 10° ESE visible
23 Feb - 06:40:13 10° WNW 06:48:41 40° SW 06:57:21 10° SSE visible
23 Feb - 19:51:04 10° S 19:58:25 25° SE 20:05:35 10° ENE visible
23 Feb - 21:52:57 10° SW 22:02:37 89° SE 22:12:01 10° NE visible
23 Feb - 23:59:45 10° W 00:08:29 40° NNW 00:17:06 10° NE visible
24 Feb - 02:07:27 10° NW 02:15:44 34° N 02:23:59 10° ENE visible
24 Feb - 04:13:02 10° NW 04:22:16 63° NNE 04:31:35 10° ESE visible
24 Feb - 06:18:25 10° WNW 06:27:00 43° SW 06:35:45 10° SSE visible
24 Feb - 19:29:39 10° S 19:36:44 23° SE 19:43:39 10° ENE visible
24 Feb - 21:31:12 10° SW 21:40:53 86° SE 21:50:17 10° NE visible
24 Feb - 23:37:51 10° W 23:46:40 41° NNW 23:55:20 10° NE visible
25 Feb - 01:45:38 10° NW 01:53:53 33° N 02:02:06 10° ENE night (unlit)
25 Feb - 03:51:18 10° NW 04:00:30 61° NNE 04:09:46 10° ESE visible
25 Feb - 05:56:37 10° WNW 06:05:18 46° SW 06:14:10 10° SSE visible
25 Feb - 19:08:15 10° S 19:15:03 22° SE 19:21:41 10° E daylight
25 Feb - 21:09:27 10° SW 21:19:08 82° SE 21:28:33 10° NE visible
25 Feb - 23:15:58 10° W 23:24:50 42° NNW 23:33:35 10° NE visible
26 Feb - 01:23:48 10° WNW 01:32:03 33° N 01:40:14 10° ENE visible
26 Feb - 03:29:34 10° NW 03:38:44 58° NNE 03:47:57 10° ESE visible
26 Feb - 05:34:49 10° WNW 05:43:36 49° SW 05:52:33 10° SSE visible
26 Feb - 18:46:54 10° SSE 18:53:22 20° SE 18:59:41 10° E daylight
26 Feb - 20:47:42 10° SW 20:57:24 78° SE 21:06:49 10° NE visible
26 Feb - 22:54:04 10° W 23:03:02 43° NNW 23:11:50 10° NE visible
27 Feb - 01:01:57 10° WNW 01:10:12 33° N 01:18:23 10° ENE visible
27 Feb - 03:07:50 10° NW 03:16:58 56° NNE 03:26:07 10° ESE visible
27 Feb - 05:13:02 10° WNW 05:21:55 51° SW 05:30:56 10° SSE visible
27 Feb - 18:25:35 10° SSE 18:31:40 18° SE 18:37:39 10° E daylight
27 Feb - 20:25:59 10° SW 20:35:40 75° SE 20:45:04 10° NE visible
27 Feb - 22:32:10 10° W 22:41:13 45° NNW 22:50:05 10° NE visible
28 Feb - 00:40:07 10° WNW 00:48:22 33° N 00:56:32 10° ENE visible
28 Feb - 02:46:06 10° NW 02:55:11 54° NNE 03:04:17 10° ESE visible
28 Feb - 04:51:16 10° WNW 05:00:13 55° SW 05:09:17 10° SSE visible
28 Feb - 18:04:20 10° SSE 18:10:00 17° SE 18:15:34 10° E daylight
28 Feb - 20:04:15 10° SW 20:13:56 71° SE 20:23:20 10° NE visible
28 Feb - 22:10:17 10° W 22:19:25 46° NNW 22:28:20 10° NE visible
29 Feb - 00:18:15 10° WNW 00:26:31 33° N 00:34:40 10° ENE visible
29 Feb - 02:24:21 10° NW 02:33:24 52° NNE 02:42:27 10° ESE night (unlit)
29 Feb - 04:29:29 10° WNW 04:38:31 58° SW 04:47:39 10° SSE visible
29 Feb - 06:39:43 10° WSW 06:42:10 11° WSW 06:44:38 10° SW visible
29 Feb - 17:43:07 10° SSE 17:48:19 16° ESE 17:53:25 10° E daylight
29 Feb - 19:42:33 10° SW 19:52:12 68° SE 20:01:35 10° ENE visible
29 Feb - 21:48:25 10° W 21:57:37 48° NNW 22:06:37 10° NE visible
